Tracking 17884 objects as of 4-December-2016
HD Live streaming from Space Station
objects crossing your sky now

NAVSTAR 37 (USA 117)

Track NAVSTAR 37 (USA 117) now!
NAVSTAR 37 (USA 117) is classified as:


NORAD ID: 23833
Int'l Code: 1996-019A
Perigee: 20,704.2 km
Apogee: 20,750.9 km
Inclination: 54.3 °
Period: 739.9 minutes
Semi major axis: 27098 km
RCS: 4.1981 m2 (large)
Launch date: March 28, 1996
Source: United States (US)
Launch site: AIR FORCE EASTERN TEST RANGE (AFETR)
PRN:
Your satellite tracking list
Your tracking list is empty





NASA's NSSDC Master Catalog

Two Line Element Set (TLE):
1 23833U 96019A   16338.49618959 -.00000059  00000-0  00000+0 0  9990
2 23833  54.3474  40.1940 0008621 282.0922 193.5621  1.94618663151129
Source of the keplerian elements: AFSPC